This demonstration page uses our WeatherBlox Daily Observations layout. Learn more.

Left ArrowRight Arrow

41.12389, -100.76542

Hourly Observations for July 2, 2022

Temp ( °F °C ) Dew Point ( °F °C ) Humidity (%) Winds ( mph kmh ) Pressure ( in mb ) Visibility ( mi km ) Precip ( " mm )
12:53 am 00:53 Clear 68 20 63 17.2 84 84 ESE 7 11 30.01 1016 10 16 0.00 0.00
1:13 am 01:13 Mostly Cloudy with Nearby Thunderstorms 68 20 56 13.3 65 65 N 22 35 30.00 1016 10 16 0.00 0.00
1:53 am 01:53 Cloudy with Heavy Rain 63 17.2 59 15 87 87 N 16 26 30.06 1018 5 8 0.18 4.57
2:53 am 02:53 Cloudy with Light Rain 63 17.2 59 15 87 87 E 20 31 29.98 1015 10 16 0.27 6.86
3:53 am 03:53 Mostly Cloudy 63 17.2 59 15 87 87 SE 5 7 29.96 1015 10 16 0.00 0.00
4:53 am 04:53 Clear with Thunderstorms 63 17.2 60 15.6 90 90 ESE 3 6 29.93 1014 10 16 0.00 0.00
5:07 am 05:07 Partly Cloudy 63 17.2 60 15.6 90 90 W 8 13 29.97 1015 10 16 0.00 0.00
5:30 am 05:30 Mostly Cloudy with Thunderstorms 64 17.8 60 15.6 87 87 W 12 19 29.98 1015 10 16 0.00 0.00
5:53 am 05:53 Cloudy with Strong Thunderstorms 63 17.2 60 15.6 90 90 NW 15 24 29.99 1016 3 5 0.12 3.05
6:15 am 06:15 Cloudy with Nearby Thunderstorms 63 17.2 61 16.1 93 93 NNW 5 7 29.97 1015 4 6 0.31 7.87
6:31 am 06:31 Cloudy 63 17.2 61 16.1 93 93 E 8 13 29.95 1014 10 16 0.32 8.13
6:53 am 06:53 Mostly Cloudy 64 17.8 61 16.1 90 90 S 6 9 29.96 1015 10 16 0.32 8.13
7:53 am 07:53 Mostly Sunny 65 18.3 62 16.7 90 90 SSE 5 7 29.93 1014 10 16 0.00 0.00
8:53 am 08:53 Sunny 69 20.6 64 17.8 84 84 W 3 6 29.94 1014 10 16 0.00 0.00
9:53 am 09:53 Mostly Cloudy 72 22.2 64 17.8 76 76 VRB 3 6 29.98 1015 10 16 0.00 0.00
10:53 am 10:53 Cloudy 73 22.8 65 18.3 76 76 E 8 13 29.99 1016 10 16 0.00 0.00
11:21 am 11:21 Partly Cloudy 75 23.9 65 18.3 71 71 ESE 7 11 29.90 1013 10 16 0.00 0.00
11:53 am 11:53 Sunny 76 24.4 65 18.3 69 69 Calm 29.98 1015 10 16 0.00 0.00
12:53 pm 12:53 Mostly Sunny 80 26.7 65 18.3 60 60 VRB 5 7 29.97 1015 10 16 0.00 0.00
1:53 pm 13:53 Mostly Sunny 82 27.8 66 18.9 58 58 VRB 6 9 29.97 1015 10 16 0.00 0.00
2:53 pm 14:53 Sunny 84 28.9 65 18.3 53 53 E 7 11 29.95 1014 10 16 0.00 0.00
3:53 pm 15:53 Sunny 86 30 64 17.8 48 48 SE 8 13 29.94 1014 10 16 0.00 0.00
4:53 pm 16:53 Sunny 86 30 63 17.2 46 46 ESE 6 9 29.93 1014 10 16 0.00 0.00
5:53 pm 17:53 Sunny 87 30.6 59 15 39 39 ESE 10 17 29.91 1013 10 16 0.00 0.00
6:53 pm 18:53 Sunny 85 29.4 63 17.2 48 48 E 12 19 29.91 1013 10 16 0.00 0.00
7:53 pm 19:53 Sunny 82 27.8 63 17.2 53 53 ESE 12 19 29.91 1013 10 16 0.00 0.00
8:53 pm 20:53 Sunny 78 25.6 64 17.8 62 62 ESE 9 15 29.92 1013 10 16 0.00 0.00
9:53 pm 21:53 Clear 74 23.3 64 17.8 71 71 ESE 7 11 29.93 1014 10 16 0.00 0.00
10:53 pm 22:53 Clear 69 20.6 65 18.3 87 87 E 5 7 29.96 1015 10 16 0.00 0.00
11:53 pm 23:53 Clear 69 20.6 64 17.8 84 84 E 7 11 29.96 1015 10 16 0.00 0.00

Powered by AerisWeather